Time,TemperatureF,DewpointF,PressureIn,WindDirection,WindDirectionDegrees,WindSpeedMPH,WindSpeedGustMPH,Humidity,HourlyPrecipIn,Conditions,Clouds,dailyrainin,SoftwareType,DateUTC
2013-02-22 00:00:00,30.7,27.8,29.96,East,86,6.0,7.0,89,0.00,,,0.00,Wunderground v.1.15,2013-02-22 06:00:00,
2013-02-22 00:10:00,30.8,27.9,29.95,ENE,61,7.0,7.0,89,0.00,,,0.00,Wunderground v.1.15,2013-02-22 06:10:00,
2013-02-22 00:15:00,30.7,27.8,29.94,East,88,7.0,14.0,89,0.00,,,0.00,Wunderground v.1.15,2013-02-22 06:15:00,
2013-02-22 00:20:00,30.8,28.2,29.94,East,79,7.0,7.0,90,0.00,,,0.00,Wunderground v.1.15,2013-02-22 06:20:00,
2013-02-22 00:25:00,30.8,28.2,29.94,ESE,113,7.0,7.0,90,0.00,,,0.00,Wunderground v.1.15,2013-02-22 06:25:00,
2013-02-22 00:35:00,30.8,28.2,29.94,East,82,5.0,7.0,90,0.00,,,0.00,Wunderground v.1.15,2013-02-22 06:35:00,
2013-02-22 00:40:00,30.8,28.2,29.94,ENE,71,5.0,5.0,90,0.00,,,0.00,Wunderground v.1.15,2013-02-22 06:40:00,
2013-02-22 00:50:00,30.8,28.2,29.95,ESE,103,5.0,5.0,90,0.00,,,0.00,Wunderground v.1.15,2013-02-22 06:50:00,
2013-02-22 01:00:00,30.8,28.2,29.94,East,98,5.0,6.0,90,0.00,,,0.00,Wunderground v.1.15,2013-02-22 07:00:00,
2013-02-22 01:10:00,30.8,28.2,29.94,East,94,5.0,9.0,90,0.00,,,0.00,Wunderground v.1.15,2013-02-22 07:10:00,
2013-02-22 01:15:00,30.9,28.3,29.93,East,82,5.0,9.0,90,0.00,,,0.00,Wunderground v.1.15,2013-02-22 07:15:00,
2013-02-22 01:25:00,31.0,28.4,29.93,East,82,5.0,6.0,90,0.00,,,0.00,Wunderground v.1.15,2013-02-22 07:25:00,
2013-02-22 01:30:00,31.0,28.4,29.94,East,80,4.0,6.0,90,0.00,,,0.00,Wunderground v.1.15,2013-02-22 07:30:00,
2013-02-22 01:40:00,31.0,28.4,29.93,East,83,4.0,4.0,90,0.00,,,0.00,Wunderground v.1.15,2013-02-22 07:40:00,
2013-02-22 01:45:00,31.1,28.5,29.93,ESE,109,4.0,5.0,90,0.00,,,0.00,Wunderground v.1.15,2013-02-22 07:45:00,
2013-02-22 01:55:00,31.1,28.5,29.93,East,88,4.0,7.0,90,0.00,,,0.00,Wunderground v.1.15,2013-02-22 07:55:00,
2013-02-22 02:05:00,31.2,28.6,29.93,East,92,3.0,5.0,90,0.00,,,0.00,Wunderground v.1.15,2013-02-22 08:05:00,
2013-02-22 02:10:00,31.2,28.6,29.92,East,90,3.0,3.0,90,0.00,,,0.00,Wunderground v.1.15,2013-02-22 08:10:00,
2013-02-22 02:15:00,31.3,28.7,29.93,East,96,3.0,3.0,90,0.00,,,0.00,Wunderground v.1.15,2013-02-22 08:15:00,
2013-02-22 02:25:00,31.3,28.7,29.93,ESE,115,2.0,4.0,90,0.00,,,0.00,Wunderground v.1.15,2013-02-22 08:25:00,
2013-02-22 02:35:00,31.4,28.8,29.93,ESE,103,2.0,3.0,90,0.00,,,0.00,Wunderground v.1.15,2013-02-22 08:35:00,
2013-02-22 02:40:00,31.5,28.9,29.93,ESE,107,3.0,3.0,90,0.00,,,0.00,Wunderground v.1.15,2013-02-22 08:40:00,
2013-02-22 02:50:00,31.5,28.9,29.93,ESE,115,3.0,3.0,90,0.00,,,0.00,Wunderground v.1.15,2013-02-22 08:50:00,
2013-02-22 02:55:00,31.6,29.0,29.92,ESE,103,2.0,3.0,90,0.00,,,0.00,Wunderground v.1.15,2013-02-22 08:55:00,
2013-02-22 03:05:00,31.6,29.0,29.91,ESE,104,3.0,3.0,90,0.00,,,0.00,Wunderground v.1.15,2013-02-22 09:05:00,
2013-02-22 03:15:00,31.7,29.1,29.91,ESE,106,2.0,3.0,90,0.00,,,0.00,Wunderground v.1.15,2013-02-22 09:15:00,
2013-02-22 03:20:00,31.7,29.1,29.90,ESE,113,3.0,3.0,90,0.00,,,0.00,Wunderground v.1.15,2013-02-22 09:20:00,
2013-02-22 03:30:00,31.7,29.1,29.89,ESE,102,3.0,3.0,90,0.00,,,0.00,Wunderground v.1.15,2013-02-22 09:30:00,
2013-02-22 03:35:00,31.7,29.1,29.89,ESE,104,3.0,3.0,90,0.00,,,0.00,Wunderground v.1.15,2013-02-22 09:35:00,
2013-02-22 03:40:00,31.8,29.2,29.90,ESE,105,3.0,3.0,90,0.00,,,0.00,Wunderground v.1.15,2013-02-22 09:40:00,
2013-02-22 03:50:00,31.8,29.2,29.89,ESE,119,3.0,3.0,90,0.00,,,0.00,Wunderground v.1.15,2013-02-22 09:50:00,
2013-02-22 03:55:00,31.8,29.2,29.89,ESE,114,3.0,4.0,90,0.00,,,0.00,Wunderground v.1.15,2013-02-22 09:55:00,
2013-02-22 04:00:00,31.8,29.2,29.89,ESE,115,2.0,3.0,90,0.00,,,0.00,Wunderground v.1.15,2013-02-22 10:00:00,
2013-02-22 04:10:00,31.8,29.2,29.89,ESE,114,2.0,2.0,90,0.00,,,0.00,Wunderground v.1.15,2013-02-22 10:10:00,
2013-02-22 04:15:00,31.8,29.2,29.89,ESE,122,2.0,3.0,90,0.00,,,0.00,Wunderground v.1.15,2013-02-22 10:15:00,
2013-02-22 04:20:00,31.8,29.2,29.89,SE,126,2.0,2.0,90,0.00,,,0.00,Wunderground v.1.15,2013-02-22 10:20:00,
2013-02-22 04:30:00,31.8,29.2,29.89,ESE,112,2.0,2.0,90,0.00,,,0.00,Wunderground v.1.15,2013-02-22 10:30:00,
2013-02-22 04:40:00,31.9,29.3,29.89,ESE,114,2.0,3.0,90,0.00,,,0.00,Wunderground v.1.15,2013-02-22 10:40:00,
2013-02-22 04:50:00,31.9,29.6,29.89,ESE,112,4.0,4.0,91,0.00,,,0.00,Wunderground v.1.15,2013-02-22 10:50:00,
2013-02-22 04:55:00,32.0,29.7,29.90,ESE,115,3.0,4.0,91,0.00,,,0.00,Wunderground v.1.15,2013-02-22 10:55:00,
2013-02-22 05:00:00,32.0,29.7,29.89,ESE,114,2.0,2.0,91,0.00,,,0.00,Wunderground v.1.15,2013-02-22 11:00:00,
2013-02-22 05:10:00,32.0,29.7,29.90,ESE,110,2.0,2.0,91,0.00,,,0.00,Wunderground v.1.15,2013-02-22 11:10:00,
2013-02-22 05:20:00,32.0,29.7,29.89,ESE,114,3.0,3.0,91,0.00,,,0.00,Wunderground v.1.15,2013-02-22 11:20:00,
2013-02-22 05:25:00,32.1,29.8,29.89,ESE,119,3.0,3.0,91,0.00,,,0.00,Wunderground v.1.15,2013-02-22 11:25:00,
2013-02-22 05:35:00,32.1,29.8,29.89,ESE,111,3.0,3.0,91,0.00,,,0.00,Wunderground v.1.15,2013-02-22 11:35:00,
2013-02-22 05:40:00,32.2,29.9,29.89,SE,125,3.0,3.0,91,0.00,,,0.00,Wunderground v.1.15,2013-02-22 11:40:00,
2013-02-22 05:50:00,32.2,29.9,29.89,ESE,116,3.0,3.0,91,0.00,,,0.00,Wunderground v.1.15,2013-02-22 11:50:00,
2013-02-22 06:00:00,32.3,30.0,29.89,SE,133,3.0,3.0,91,0.00,,,0.00,Wunderground v.1.15,2013-02-22 12:00:00,
2013-02-22 06:05:00,32.3,30.0,29.90,SE,142,3.0,3.0,91,0.00,,,0.00,Wunderground v.1.15,2013-02-22 12:05:00,
2013-02-22 06:10:00,32.4,30.1,29.90,SE,144,2.0,3.0,91,0.00,,,0.00,Wunderground v.1.15,2013-02-22 12:10:00,
2013-02-22 06:15:00,32.4,30.1,29.90,SSE,151,2.0,4.0,91,0.00,,,0.00,Wunderground v.1.15,2013-02-22 12:15:00,
2013-02-22 06:25:00,32.4,30.1,29.90,SSE,162,3.0,4.0,91,0.00,,,0.00,Wunderground v.1.15,2013-02-22 12:25:00,
2013-02-22 06:30:00,32.5,30.2,29.90,SSE,156,3.0,3.0,91,0.00,,,0.00,Wunderground v.1.15,2013-02-22 12:30:00,
2013-02-22 06:35:00,32.5,30.2,29.89,SSE,159,3.0,3.0,91,0.00,,,0.00,Wunderground v.1.15,2013-02-22 12:35:00,
2013-02-22 06:45:00,32.5,30.2,29.90,SSE,155,3.0,4.0,91,0.00,,,0.00,Wunderground v.1.15,2013-02-22 12:45:00,
2013-02-22 06:55:00,32.5,30.2,29.90,SSE,152,3.0,3.0,91,0.00,,,0.00,Wunderground v.1.15,2013-02-22 12:55:00,
2013-02-22 07:05:00,32.6,30.3,29.90,SSE,166,3.0,4.0,91,0.00,,,0.00,Wunderground v.1.15,2013-02-22 13:05:00,
2013-02-22 07:15:00,32.6,30.3,29.90,South,179,4.0,5.0,91,0.00,,,0.00,Wunderground v.1.15,2013-02-22 13:15:00,
2013-02-22 07:25:00,32.7,30.4,29.90,South,175,4.0,6.0,91,0.00,,,0.00,Wunderground v.1.15,2013-02-22 13:25:00,
2013-02-22 07:30:00,32.7,30.4,29.91,SSW,198,3.0,3.0,91,0.00,,,0.00,Wunderground v.1.15,2013-02-22 13:30:00,
2013-02-22 07:35:00,32.8,30.5,29.90,SSW,192,3.0,3.0,91,0.00,,,0.00,Wunderground v.1.15,2013-02-22 13:35:00,
2013-02-22 07:45:00,32.8,30.5,29.90,SSW,197,3.0,3.0,91,0.00,,,0.00,Wunderground v.1.15,2013-02-22 13:45:00,
2013-02-22 07:50:00,32.8,30.5,29.91,South,184,2.0,2.0,91,0.00,,,0.00,Wunderground v.1.15,2013-02-22 13:50:00,
2013-02-22 07:55:00,32.8,30.5,29.91,SSW,211,3.0,4.0,91,0.00,,,0.00,Wunderground v.1.15,2013-02-22 13:55:00,
2013-02-22 08:00:00,32.8,30.5,29.91,SSW,205,4.0,4.0,91,0.00,,,0.00,Wunderground v.1.15,2013-02-22 14:00:00,
2013-02-22 08:10:00,32.9,30.6,29.91,SSW,211,5.0,5.0,91,0.00,,,0.00,Wunderground v.1.15,2013-02-22 14:10:00,
2013-02-22 08:20:00,32.9,30.6,29.91,SSW,207,6.0,7.0,91,0.00,,,0.00,Wunderground v.1.15,2013-02-22 14:20:00,
2013-02-22 08:25:00,33.0,30.7,29.92,SSW,212,7.0,7.0,91,0.00,,,0.00,Wunderground v.1.15,2013-02-22 14:25:00,
2013-02-22 08:35:00,33.0,30.7,29.92,SSW,200,8.0,9.0,91,0.00,,,0.00,Wunderground v.1.15,2013-02-22 14:35:00,
2013-02-22 08:40:00,33.1,30.8,29.92,SSW,209,8.0,8.0,91,0.00,,,0.00,Wunderground v.1.15,2013-02-22 14:40:00,
2013-02-22 08:50:00,33.1,30.8,29.93,SSW,212,10.0,10.0,91,0.00,,,0.00,Wunderground v.1.15,2013-02-22 14:50:00,
2013-02-22 09:00:00,33.2,30.9,29.93,SSW,213,12.0,12.0,91,0.00,,,0.00,Wunderground v.1.15,2013-02-22 15:00:00,
2013-02-22 09:10:00,33.2,30.9,29.93,SW,217,12.0,17.0,91,0.00,,,0.00,Wunderground v.1.15,2013-02-22 15:10:00,
2013-02-22 09:20:00,33.2,30.9,29.93,SW,220,14.0,14.0,91,0.00,,,0.00,Wunderground v.1.15,2013-02-22 15:20:00,
2013-02-22 09:30:00,33.2,30.9,29.93,SW,218,15.0,15.0,91,0.00,,,0.00,Wunderground v.1.15,2013-02-22 15:30:00,
2013-02-22 09:35:00,33.3,31.0,29.93,SW,225,15.0,15.0,91,0.00,,,0.00,Wunderground v.1.15,2013-02-22 15:35:00,
2013-02-22 09:45:00,33.3,31.0,29.93,SW,227,15.0,17.0,91,0.00,,,0.00,Wunderground v.1.15,2013-02-22 15:45:00,
2013-02-22 09:55:00,33.3,31.0,29.94,SW,219,15.0,16.0,91,0.00,,,0.00,Wunderground v.1.15,2013-02-22 15:55:00,
2013-02-22 10:00:00,33.3,31.0,29.94,SW,220,16.0,16.0,91,0.00,,,0.00,Wunderground v.1.15,2013-02-22 16:00:00,
2013-02-22 10:10:00,33.4,31.1,29.94,SW,215,17.0,18.0,91,0.00,,,0.00,Wunderground v.1.15,2013-02-22 16:10:00,
2013-02-22 10:20:00,33.4,31.1,29.95,SW,219,18.0,18.0,91,0.00,,,0.01,Wunderground v.1.15,2013-02-22 16:20:00,
2013-02-22 10:25:00,33.4,31.1,29.95,SW,217,18.0,18.0,91,0.00,,,0.01,Wunderground v.1.15,2013-02-22 16:25:00,
2013-02-22 10:30:00,33.5,31.2,29.95,SW,229,18.0,20.0,91,0.00,,,0.01,Wunderground v.1.15,2013-02-22 16:30:00,
2013-02-22 10:35:00,33.5,31.2,29.95,SW,222,18.0,22.0,91,0.00,,,0.01,Wunderground v.1.15,2013-02-22 16:35:00,
2013-02-22 10:45:00,33.7,31.4,29.95,SW,227,18.0,21.0,91,0.00,,,0.02,Wunderground v.1.15,2013-02-22 16:45:00,
2013-02-22 10:50:00,33.7,31.4,29.96,SW,217,18.0,18.0,91,0.00,,,0.02,Wunderground v.1.15,2013-02-22 16:50:00,
2013-02-22 10:55:00,33.7,31.4,29.96,SW,227,17.0,18.0,91,0.06,,,0.03,Wunderground v.1.15,2013-02-22 16:55:00,
2013-02-22 11:05:00,33.8,31.5,29.96,SW,216,18.0,18.0,91,0.06,,,0.03,Wunderground v.1.15,2013-02-22 17:05:00,
2013-02-22 11:15:00,33.9,31.3,29.96,SW,215,18.0,18.0,90,0.05,,,0.04,Wunderground v.1.15,2013-02-22 17:15:00,
2013-02-22 11:20:00,34.0,31.4,29.96,SW,218,18.0,18.0,90,0.06,,,0.05,Wunderground v.1.15,2013-02-22 17:20:00,
2013-02-22 11:25:00,34.1,31.5,29.96,SW,219,16.0,18.0,90,0.06,,,0.05,Wunderground v.1.15,2013-02-22 17:25:00,
2013-02-22 11:35:00,34.6,32.0,29.96,SW,216,16.0,20.0,90,0.05,,,0.06,Wunderground v.1.15,2013-02-22 17:35:00,
2013-02-22 11:40:00,34.8,32.2,29.96,SSW,211,16.0,16.0,90,0.09,,,0.07,Wunderground v.1.15,2013-02-22 17:40:00,
2013-02-22 11:50:00,35.1,32.2,29.96,SW,225,15.0,15.0,89,0.07,,,0.08,Wunderground v.1.15,2013-02-22 17:50:00,
2013-02-22 12:00:00,34.9,31.7,29.96,SW,229,16.0,16.0,88,0.07,,,0.09,Wunderground v.1.15,2013-02-22 18:00:00,
2013-02-22 12:05:00,34.8,31.6,29.97,SW,223,17.0,17.0,88,0.07,,,0.10,Wunderground v.1.15,2013-02-22 18:05:00,
2013-02-22 12:10:00,34.8,31.6,29.96,SW,223,16.0,18.0,88,0.06,,,0.11,Wunderground v.1.15,2013-02-22 18:10:00,
2013-02-22 12:20:00,34.6,31.4,29.97,SW,229,16.0,16.0,88,0.06,,,0.12,Wunderground v.1.15,2013-02-22 18:20:00,
2013-02-22 12:30:00,34.8,31.6,29.97,SW,227,16.0,25.0,88,0.07,,,0.13,Wunderground v.1.15,2013-02-22 18:30:00,
2013-02-22 12:40:00,35.0,31.5,29.97,SW,220,18.0,18.0,87,0.06,,,0.14,Wunderground v.1.15,2013-02-22 18:40:00,
2013-02-22 12:45:00,35.0,31.5,29.97,SW,225,17.0,18.0,87,0.08,,,0.14,Wunderground v.1.15,2013-02-22 18:45:00,
2013-02-22 12:55:00,35.0,31.2,29.97,SW,221,18.0,19.0,86,0.06,,,0.15,Wunderground v.1.15,2013-02-22 18:55:00,
2013-02-22 13:00:00,35.0,30.9,29.97,SW,225,18.0,20.0,85,0.06,,,0.16,Wunderground v.1.15,2013-02-22 19:00:00,
2013-02-22 13:10:00,35.2,30.9,29.96,SW,230,19.0,19.0,84,0.06,,,0.17,Wunderground v.1.15,2013-02-22 19:10:00,
2013-02-22 13:20:00,35.1,30.8,29.96,SW,221,19.0,19.0,84,0.06,,,0.18,Wunderground v.1.15,2013-02-22 19:20:00,
2013-02-22 13:25:00,34.9,30.6,29.97,SW,231,18.0,19.0,84,0.07,,,0.19,Wunderground v.1.15,2013-02-22 19:25:00,
2013-02-22 13:30:00,34.8,30.8,29.96,SW,225,18.0,20.0,85,0.07,,,0.19,Wunderground v.1.15,2013-02-22 19:30:00,
2013-02-22 13:40:00,34.9,30.8,29.97,SW,231,18.0,18.0,85,0.04,,,0.20,Wunderground v.1.15,2013-02-22 19:40:00,
2013-02-22 13:45:00,34.9,30.6,29.97,SW,224,20.0,22.0,84,0.04,,,0.20,Wunderground v.1.15,2013-02-22 19:45:00,
2013-02-22 13:50:00,34.9,30.6,29.97,SW,229,20.0,22.0,84,0.04,,,0.20,Wunderground v.1.15,2013-02-22 19:50:00,
2013-02-22 14:00:00,34.8,30.5,29.97,SW,225,19.0,21.0,84,0.04,,,0.21,Wunderground v.1.15,2013-02-22 20:00:00,
2013-02-22 14:05:00,34.7,30.4,29.97,SW,229,19.0,21.0,84,0.04,,,0.21,Wunderground v.1.15,2013-02-22 20:05:00,
2013-02-22 14:15:00,34.7,30.7,29.97,SW,225,17.0,20.0,85,0.00,,,0.21,Wunderground v.1.15,2013-02-22 20:15:00,
2013-02-22 14:20:00,34.6,30.6,29.97,SW,234,18.0,18.0,85,0.00,,,0.21,Wunderground v.1.15,2013-02-22 20:20:00,
2013-02-22 14:30:00,34.4,30.4,29.97,SW,230,16.0,16.0,85,0.00,,,0.21,Wunderground v.1.15,2013-02-22 20:30:00,
2013-02-22 14:35:00,34.3,30.0,29.97,SW,229,16.0,19.0,84,0.00,,,0.21,Wunderground v.1.15,2013-02-22 20:35:00,
2013-02-22 14:40:00,34.2,29.9,29.97,SW,235,17.0,19.0,84,0.00,,,0.22,Wunderground v.1.15,2013-02-22 20:40:00,
2013-02-22 14:50:00,33.9,29.6,29.97,SW,229,16.0,16.0,84,0.00,,,0.22,Wunderground v.1.15,2013-02-22 20:50:00,
2013-02-22 15:00:00,33.8,29.8,29.98,SW,222,16.0,17.0,85,0.00,,,0.22,Wunderground v.1.15,2013-02-22 21:00:00,
2013-02-22 15:05:00,33.7,29.7,29.98,SW,229,15.0,17.0,85,0.00,,,0.22,Wunderground v.1.15,2013-02-22 21:05:00,
2013-02-22 15:15:00,33.6,29.6,29.98,SW,236,15.0,19.0,85,0.00,,,0.22,Wunderground v.1.15,2013-02-22 21:15:00,
2013-02-22 15:20:00,33.5,29.8,29.99,SW,234,15.0,15.0,86,0.00,,,0.22,Wunderground v.1.15,2013-02-22 21:20:00,
2013-02-22 15:25:00,33.4,29.7,29.99,SW,229,15.0,15.0,86,0.00,,,0.22,Wunderground v.1.15,2013-02-22 21:25:00,
2013-02-22 15:35:00,33.4,29.7,29.99,SW,222,14.0,14.0,86,0.00,,,0.22,Wunderground v.1.15,2013-02-22 21:35:00,
2013-02-22 15:45:00,33.4,29.7,29.99,WSW,238,14.0,15.0,86,0.00,,,0.22,Wunderground v.1.15,2013-02-22 21:45:00,
2013-02-22 15:50:00,33.3,29.6,29.99,WSW,238,14.0,14.0,86,0.00,,,0.22,Wunderground v.1.15,2013-02-22 21:50:00,
2013-02-22 16:00:00,33.3,29.8,29.99,WSW,238,12.0,13.0,87,0.00,,,0.22,Wunderground v.1.15,2013-02-22 22:00:00,
2013-02-22 16:05:00,33.2,29.8,29.99,SW,236,12.0,13.0,87,0.00,,,0.22,Wunderground v.1.15,2013-02-22 22:05:00,
2013-02-22 16:10:00,33.2,30.0,30.00,SW,236,11.0,11.0,88,0.00,,,0.22,Wunderground v.1.15,2013-02-22 22:10:00,
2013-02-22 16:20:00,33.0,29.6,30.00,WSW,245,11.0,14.0,87,0.00,,,0.22,Wunderground v.1.15,2013-02-22 22:20:00,
2013-02-22 16:25:00,32.9,29.2,30.00,WSW,250,13.0,15.0,86,0.00,,,0.22,Wunderground v.1.15,2013-02-22 22:25:00,
2013-02-22 16:30:00,32.8,29.1,30.00,WSW,240,13.0,16.0,86,0.00,,,0.22,Wunderground v.1.15,2013-02-22 22:30:00,
2013-02-22 16:40:00,32.8,28.8,30.00,WSW,245,16.0,16.0,85,0.00,,,0.22,Wunderground v.1.15,2013-02-22 22:40:00,
2013-02-22 16:45:00,32.8,28.5,30.00,WSW,248,17.0,17.0,84,0.00,,,0.22,Wunderground v.1.15,2013-02-22 22:45:00,
2013-02-22 16:50:00,32.7,28.1,30.00,WSW,246,17.0,21.0,83,0.00,,,0.22,Wunderground v.1.15,2013-02-22 22:50:00,
2013-02-22 17:00:00,32.7,27.8,30.00,WSW,246,18.0,18.0,82,0.00,,,0.23,Wunderground v.1.15,2013-02-22 23:00:00,
2013-02-22 17:05:00,32.6,27.7,30.00,WSW,247,17.0,18.0,82,0.00,,,0.23,Wunderground v.1.15,2013-02-22 23:05:00,
2013-02-22 17:10:00,32.6,27.7,30.00,WSW,243,18.0,18.0,82,0.00,,,0.23,Wunderground v.1.15,2013-02-22 23:10:00,
2013-02-22 17:20:00,32.5,27.0,30.01,WSW,247,18.0,18.0,80,0.00,,,0.23,Wunderground v.1.15,2013-02-22 23:20:00,
2013-02-22 17:30:00,32.4,27.2,30.02,WSW,244,18.0,19.0,81,0.00,,,0.23,Wunderground v.1.15,2013-02-22 23:30:00,
2013-02-22 17:40:00,32.4,27.2,30.02,WSW,252,16.0,16.0,81,0.00,,,0.23,Wunderground v.1.15,2013-02-22 23:40:00,
2013-02-22 17:50:00,32.2,26.7,30.02,WSW,238,17.0,17.0,80,0.00,,,0.23,Wunderground v.1.15,2013-02-22 23:50:00,
2013-02-22 18:00:00,32.1,26.6,30.02,WSW,246,15.0,15.0,80,0.00,,,0.23,Wunderground v.1.15,2013-02-23 00:00:00,
2013-02-22 18:05:00,32.0,26.8,30.03,WSW,252,14.0,15.0,81,0.00,,,0.23,Wunderground v.1.15,2013-02-23 00:05:00,
2013-02-22 18:10:00,32.0,26.8,30.03,WSW,254,14.0,17.0,81,0.00,,,0.23,Wunderground v.1.15,2013-02-23 00:10:00,
2013-02-22 18:20:00,31.7,26.2,30.03,WSW,246,16.0,18.0,80,0.00,,,0.23,Wunderground v.1.15,2013-02-23 00:20:00,
2013-02-22 18:25:00,31.5,26.0,30.04,West,261,16.0,18.0,80,0.00,,,0.23,Wunderground v.1.15,2013-02-23 00:25:00,
2013-02-22 18:35:00,31.2,26.0,30.04,WSW,254,15.0,16.0,81,0.00,,,0.23,Wunderground v.1.15,2013-02-23 00:35:00,
2013-02-22 18:45:00,31.0,25.9,30.04,WSW,248,14.0,18.0,81,0.00,,,0.23,Wunderground v.1.15,2013-02-23 00:45:00,
2013-02-22 18:50:00,30.8,25.7,30.04,WSW,248,13.0,13.0,81,0.00,,,0.23,Wunderground v.1.15,2013-02-23 00:50:00,
2013-02-22 19:00:00,30.5,24.8,30.04,WSW,244,16.0,16.0,79,0.00,,,0.23,Wunderground v.1.15,2013-02-23 01:00:00,
2013-02-22 19:05:00,30.3,24.6,30.04,West,260,19.0,21.0,79,0.00,,,0.23,Wunderground v.1.15,2013-02-23 01:05:00,
2013-02-22 19:15:00,30.1,24.4,30.05,WSW,238,19.0,19.0,79,0.00,,,0.23,Wunderground v.1.15,2013-02-23 01:15:00,
2013-02-22 19:20:00,29.9,24.2,30.05,WSW,238,19.0,19.0,79,0.00,,,0.23,Wunderground v.1.15,2013-02-23 01:20:00,
2013-02-22 19:30:00,29.7,24.3,30.05,WSW,242,17.0,20.0,80,0.00,,,0.23,Wunderground v.1.15,2013-02-23 01:30:00,
2013-02-22 19:40:00,29.6,23.9,30.05,WSW,252,17.0,17.0,79,0.00,,,0.23,Wunderground v.1.15,2013-02-23 01:40:00,
2013-02-22 19:45:00,29.5,23.8,30.05,West,261,16.0,17.0,79,0.00,,,0.23,Wunderground v.1.15,2013-02-23 01:45:00,
2013-02-22 19:55:00,29.4,23.7,30.06,SW,227,16.0,21.0,79,0.00,,,0.23,Wunderground v.1.15,2013-02-23 01:55:00,
2013-02-22 20:05:00,29.3,23.6,30.06,WSW,250,15.0,16.0,79,0.00,,,0.23,Wunderground v.1.15,2013-02-23 02:05:00,
2013-02-22 20:10:00,29.2,23.5,30.06,WSW,250,15.0,17.0,79,0.00,,,0.23,Wunderground v.1.15,2013-02-23 02:10:00,
2013-02-22 20:20:00,29.1,23.4,30.06,West,259,16.0,16.0,79,0.00,,,0.23,Wunderground v.1.15,2013-02-23 02:20:00,
2013-02-22 20:25:00,29.0,23.3,30.06,WSW,255,16.0,17.0,79,0.00,,,0.23,Wunderground v.1.15,2013-02-23 02:25:00,
2013-02-22 20:35:00,28.8,23.1,30.07,WSW,252,16.0,17.0,79,0.00,,,0.23,Wunderground v.1.15,2013-02-23 02:35:00,
2013-02-22 20:45:00,28.8,23.1,30.07,WSW,242,16.0,18.0,79,0.00,,,0.23,Wunderground v.1.15,2013-02-23 02:45:00,
2013-02-22 20:55:00,28.6,22.9,30.07,WSW,237,15.0,16.0,79,0.00,,,0.23,Wunderground v.1.15,2013-02-23 02:55:00,
2013-02-22 21:05:00,28.5,22.8,30.07,WSW,245,11.0,13.0,79,0.00,,,0.23,Wunderground v.1.15,2013-02-23 03:05:00,
2013-02-22 21:15:00,28.3,22.9,30.08,SW,236,11.0,12.0,80,0.00,,,0.23,Wunderground v.1.15,2013-02-23 03:15:00,
2013-02-22 21:20:00,28.2,22.8,30.08,SW,231,10.0,10.0,80,0.00,,,0.24,Wunderground v.1.15,2013-02-23 03:20:00,
2013-02-22 21:30:00,28.1,22.7,30.08,SW,234,11.0,11.0,80,0.00,,,0.24,Wunderground v.1.15,2013-02-23 03:30:00,
2013-02-22 21:40:00,27.9,22.5,30.07,SW,232,11.0,11.0,80,0.00,,,0.24,Wunderground v.1.15,2013-02-23 03:40:00,
2013-02-22 21:50:00,27.8,22.7,30.07,SW,234,11.0,11.0,81,0.00,,,0.24,Wunderground v.1.15,2013-02-23 03:50:00,
2013-02-22 21:55:00,27.8,22.7,30.07,SW,229,11.0,12.0,81,0.00,,,0.24,Wunderground v.1.15,2013-02-23 03:55:00,
2013-02-22 22:05:00,27.7,22.6,30.08,WSW,237,12.0,13.0,81,0.00,,,0.24,Wunderground v.1.15,2013-02-23 04:05:00,
2013-02-22 22:15:00,27.6,22.5,30.08,WSW,238,12.0,12.0,81,0.00,,,0.24,Wunderground v.1.15,2013-02-23 04:15:00,
2013-02-22 22:20:00,27.6,22.5,30.08,SW,233,11.0,11.0,81,0.00,,,0.24,Wunderground v.1.15,2013-02-23 04:20:00,
2013-02-22 22:30:00,27.6,22.8,30.08,WSW,243,10.0,11.0,82,0.00,,,0.24,Wunderground v.1.15,2013-02-23 04:30:00,
2013-02-22 22:40:00,27.5,22.7,30.08,WSW,237,11.0,14.0,82,0.00,,,0.24,Wunderground v.1.15,2013-02-23 04:40:00,
2013-02-22 22:45:00,27.5,22.7,30.08,SW,231,12.0,14.0,82,0.00,,,0.24,Wunderground v.1.15,2013-02-23 04:45:00,
2013-02-22 22:50:00,27.4,22.3,30.08,WSW,238,13.0,13.0,81,0.00,,,0.24,Wunderground v.1.15,2013-02-23 04:50:00,
2013-02-22 22:55:00,27.4,22.3,30.08,SW,230,12.0,14.0,81,0.00,,,0.24,Wunderground v.1.15,2013-02-23 04:55:00,
2013-02-22 23:00:00,27.4,22.3,30.08,SW,233,12.0,12.0,81,0.00,,,0.24,Wunderground v.1.15,2013-02-23 05:00:00,
2013-02-22 23:05:00,27.3,22.2,30.08,WSW,237,12.0,13.0,81,0.00,,,0.24,Wunderground v.1.15,2013-02-23 05:05:00,
2013-02-22 23:15:00,27.3,22.2,30.08,SW,234,12.0,13.0,81,0.00,,,0.24,Wunderground v.1.15,2013-02-23 05:15:00,
2013-02-22 23:20:00,27.3,22.2,30.08,SW,234,12.0,12.0,81,0.00,,,0.24,Wunderground v.1.15,2013-02-23 05:20:00,
2013-02-22 23:25:00,27.3,22.2,30.08,WSW,247,12.0,14.0,81,0.00,,,0.24,Wunderground v.1.15,2013-02-23 05:25:00,
2013-02-22 23:35:00,27.2,22.1,30.08,SW,230,12.0,12.0,81,0.00,,,0.24,Wunderground v.1.15,2013-02-23 05:35:00,
2013-02-22 23:45:00,27.2,22.1,30.08,SW,234,12.0,12.0,81,0.00,,,0.24,Wunderground v.1.15,2013-02-23 05:45:00,
2013-02-22 23:55:00,27.2,22.4,30.08,SW,236,10.0,11.0,82,0.00,,,0.24,Wunderground v.1.15,2013-02-23 05:55:00,